Time,TemperatureF,DewpointF,PressureIn,WindDirection,WindDirectionDegrees,WindSpeedMPH,WindSpeedGustMPH,Humidity,HourlyPrecipIn,Conditions,Clouds,dailyrainin,SoftwareType,DateUTC
2013-01-25 00:00:00,16.9,8.8,30.54,NE,52,0.0,0.0,70,0.00,,CLR,0.00,VWS V14.01,2013-01-25 05:00:00,
2013-01-25 00:02:00,16.9,8.8,30.54,ENE,59,0.0,0.0,70,0.00,,CLR,0.00,VWS V14.01,2013-01-25 05:02:00,
2013-01-25 00:03:00,16.9,8.8,30.54,ENE,59,0.0,0.0,70,0.00,,CLR,0.00,VWS V14.01,2013-01-25 05:03:00,
2013-01-25 00:08:00,16.7,8.3,30.54,ENE,59,0.0,0.0,69,0.00,,CLR,0.00,VWS V14.01,2013-01-25 05:08:00,
2013-01-25 00:13:00,16.7,8.3,30.53,ENE,62,0.0,0.0,69,0.00,,CLR,0.00,VWS V14.01,2013-01-25 05:13:00,
2013-01-25 00:15:00,16.4,6.7,30.51,ENE,62,0.0,0.0,65,0.00,,OVC100,0.00,VWS V14.01,2013-01-25 05:15:00,
2013-01-25 00:18:00,16.5,8.1,30.53,ENE,62,0.0,0.0,69,0.00,,CLR,0.00,VWS V14.01,2013-01-25 05:18:00,
2013-01-25 00:23:00,16.4,8.0,30.53,ENE,62,0.0,0.0,69,0.00,,CLR,0.00,VWS V14.01,2013-01-25 05:23:00,
2013-01-25 00:28:00,16.2,7.5,30.53,ENE,62,0.0,0.0,68,0.00,,CLR,0.00,VWS V14.01,2013-01-25 05:28:00,
2013-01-25 00:30:00,16.2,6.8,30.50,ENE,62,0.0,0.0,66,0.00,,OVC100,0.00,VWS V14.01,2013-01-25 05:30:00,
2013-01-25 00:34:00,16.2,7.2,30.53,ENE,62,0.0,0.0,67,0.00,,CLR,0.00,VWS V14.01,2013-01-25 05:34:00,
2013-01-25 00:39:00,16.2,7.2,30.53,ENE,62,0.0,0.0,67,0.00,,CLR,0.00,VWS V14.01,2013-01-25 05:39:00,
2013-01-25 00:44:00,16.2,7.2,30.53,ENE,62,0.0,0.0,67,0.00,,CLR,0.00,VWS V14.01,2013-01-25 05:44:00,
2013-01-25 00:45:00,15.6,5.3,30.49,ENE,78,0.0,0.0,63,0.00,,OVC100,0.00,VWS V14.01,2013-01-25 05:45:00,
2013-01-25 00:49:00,16.2,6.8,30.53,ENE,62,0.0,0.0,66,0.00,,CLR,0.00,VWS V14.01,2013-01-25 05:49:00,
2013-01-25 00:54:00,16.2,6.8,30.53,ENE,62,0.0,0.0,66,0.00,,CLR,0.00,VWS V14.01,2013-01-25 05:54:00,
2013-01-25 00:59:00,16.1,6.8,30.52,ENE,62,0.0,0.0,66,0.00,,CLR,0.00,VWS V14.01,2013-01-25 05:59:00,
2013-01-25 01:00:00,15.9,4.8,30.49,East,89,0.0,2.0,61,0.00,,OVC100,0.00,VWS V14.01,2013-01-25 06:00:00,
2013-01-25 01:04:00,16.2,6.5,30.52,ENE,62,0.0,0.0,65,0.00,,CLR,0.00,VWS V14.01,2013-01-25 06:04:00,
2013-01-25 01:09:00,16.2,6.5,30.52,ENE,62,0.0,0.0,65,0.00,,CLR,0.00,VWS V14.01,2013-01-25 06:09:00,
2013-01-25 01:14:00,16.4,6.7,30.51,ENE,62,0.0,0.0,65,0.00,,CLR,0.00,VWS V14.01,2013-01-25 06:14:00,
2013-01-25 01:15:00,16.1,5.0,30.49,East,88,2.0,2.0,61,0.00,,OVC100,0.00,VWS V14.01,2013-01-25 06:15:00,
2013-01-25 01:19:00,16.4,6.7,30.51,ENE,62,0.0,0.0,65,0.00,,CLR,0.00,VWS V14.01,2013-01-25 06:19:00,
2013-01-25 01:24:00,16.4,7.0,30.51,ENE,62,0.0,0.0,66,0.00,,CLR,0.00,VWS V14.01,2013-01-25 06:24:00,
2013-01-25 01:29:00,16.4,7.0,30.50,ENE,62,0.0,0.0,66,0.00,,CLR,0.00,VWS V14.01,2013-01-25 06:29:00,
2013-01-25 01:30:00,16.2,5.1,30.47,East,97,3.0,7.0,61,0.00,,OVC100,0.00,VWS V14.01,2013-01-25 06:30:00,
2013-01-25 01:34:00,16.1,6.8,30.50,ENE,64,0.0,0.0,66,0.00,,CLR,0.00,VWS V14.01,2013-01-25 06:34:00,
2013-01-25 01:39:00,15.7,6.4,30.50,ENE,76,0.0,0.0,66,0.00,,CLR,0.00,VWS V14.01,2013-01-25 06:39:00,
2013-01-25 01:44:00,15.6,5.6,30.49,ENE,78,0.0,0.0,64,0.00,,CLR,0.00,VWS V14.01,2013-01-25 06:44:00,
2013-01-25 01:45:00,16.4,5.3,30.48,East,82,0.0,6.0,61,0.00,,OVC100,0.00,VWS V14.01,2013-01-25 06:45:00,
2013-01-25 01:49:00,15.6,5.3,30.49,ENE,78,0.0,0.0,63,0.00,,CLR,0.00,VWS V14.01,2013-01-25 06:49:00,
2013-01-25 01:54:00,15.7,5.0,30.49,ENE,78,1.0,2.0,62,0.00,,CLR,0.00,VWS V14.01,2013-01-25 06:54:00,
2013-01-25 01:59:00,15.9,4.8,30.49,East,89,0.0,2.0,61,0.00,,CLR,0.00,VWS V14.01,2013-01-25 06:59:00,
2013-01-25 02:00:00,16.5,4.7,30.47,East,96,0.0,6.0,59,0.00,,CLR,0.00,VWS V14.01,2013-01-25 07:00:00,
2013-01-25 02:04:00,16.1,5.0,30.49,East,89,2.0,2.0,61,0.00,,CLR,0.00,VWS V14.01,2013-01-25 07:04:00,
2013-01-25 02:09:00,16.1,5.0,30.49,East,90,1.0,2.0,61,0.00,,CLR,0.00,VWS V14.01,2013-01-25 07:09:00,
2013-01-25 02:14:00,16.1,5.0,30.49,East,85,2.0,2.0,61,0.00,,CLR,0.00,VWS V14.01,2013-01-25 07:14:00,
2013-01-25 02:15:00,16.5,4.7,30.47,East,85,2.0,5.0,59,0.00,,OVC100,0.00,VWS V14.01,2013-01-25 07:15:00,
2013-01-25 02:19:00,16.1,5.0,30.49,East,89,0.0,2.0,61,0.00,,CLR,0.00,VWS V14.01,2013-01-25 07:19:00,
2013-01-25 02:24:00,16.2,5.1,30.48,ENE,58,1.0,3.0,61,0.00,,CLR,0.00,VWS V14.01,2013-01-25 07:24:00,
2013-01-25 02:29:00,16.2,5.1,30.47,East,88,3.0,3.0,61,0.00,,CLR,0.00,VWS V14.01,2013-01-25 07:29:00,
2013-01-25 02:30:00,16.7,4.9,30.45,East,85,0.0,3.0,59,0.00,,OVC100,0.00,VWS V14.01,2013-01-25 07:30:00,
2013-01-25 02:34:00,16.2,5.1,30.47,East,93,2.0,7.0,61,0.00,,CLR,0.00,VWS V14.01,2013-01-25 07:34:00,
2013-01-25 02:39:00,16.2,5.1,30.48,ENE,68,1.0,5.0,61,0.00,,CLR,0.00,VWS V14.01,2013-01-25 07:39:00,
2013-01-25 02:44:00,16.4,5.3,30.48,East,82,0.0,6.0,61,0.00,,CLR,0.00,VWS V14.01,2013-01-25 07:44:00,
2013-01-25 02:45:00,16.9,5.4,30.46,ENE,64,0.0,2.0,60,0.00,,OVC100,0.00,VWS V14.01,2013-01-25 07:45:00,
2013-01-25 02:49:00,16.4,5.0,30.48,East,85,0.0,5.0,60,0.00,,CLR,0.00,VWS V14.01,2013-01-25 07:49:00,
2013-01-25 02:54:00,16.5,4.7,30.48,East,93,2.0,6.0,59,0.00,,CLR,0.00,VWS V14.01,2013-01-25 07:54:00,
2013-01-25 02:59:00,16.5,4.7,30.47,East,96,0.0,6.0,59,0.00,,CLR,0.00,VWS V14.01,2013-01-25 07:59:00,
2013-01-25 03:00:00,16.9,5.4,30.45,ENE,69,0.0,2.0,60,0.00,,OVC100,0.00,VWS V14.01,2013-01-25 08:00:00,
2013-01-25 03:04:00,16.5,4.7,30.47,East,89,0.0,5.0,59,0.00,,BKN110,0.00,VWS V14.01,2013-01-25 08:04:00,
2013-01-25 03:09:00,16.5,4.3,30.47,East,88,2.0,3.0,58,0.00,,BKN110,0.00,VWS V14.01,2013-01-25 08:09:00,
2013-01-25 03:14:00,16.5,4.7,30.47,East,83,3.0,5.0,59,0.00,,BKN110,0.00,VWS V14.01,2013-01-25 08:14:00,
2013-01-25 03:15:00,17.0,5.5,30.45,ENE,72,0.0,7.0,60,0.00,,OVC100,0.00,VWS V14.01,2013-01-25 08:15:00,
2013-01-25 03:19:00,16.5,4.7,30.47,East,90,0.0,6.0,59,0.00,,BKN110,0.00,VWS V14.01,2013-01-25 08:19:00,
2013-01-25 03:24:00,16.7,5.6,30.46,East,90,0.0,6.0,61,0.00,,BKN110,0.00,VWS V14.01,2013-01-25 08:24:00,
2013-01-25 03:29:00,16.7,4.9,30.45,East,85,2.0,3.0,59,0.00,,BKN110,0.00,VWS V14.01,2013-01-25 08:29:00,
2013-01-25 03:30:00,17.0,5.9,30.43,ENE,78,0.0,5.0,61,0.00,,OVC100,0.00,VWS V14.01,2013-01-25 08:30:00,
2013-01-25 03:34:00,16.7,4.9,30.45,ENE,76,0.0,3.0,59,0.00,,BKN110,0.00,VWS V14.01,2013-01-25 08:34:00,
2013-01-25 03:39:00,16.7,5.2,30.46,East,93,0.0,2.0,60,0.00,,BKN110,0.00,VWS V14.01,2013-01-25 08:39:00,
2013-01-25 03:45:00,16.9,5.4,30.46,ENE,64,0.0,2.0,60,0.00,,BKN110,0.00,VWS V14.01,2013-01-25 08:45:00,
2013-01-25 03:50:00,16.9,5.4,30.46,ENE,65,0.0,2.0,60,0.00,,BKN110,0.00,VWS V14.01,2013-01-25 08:50:00,
2013-01-25 03:55:00,16.9,5.1,30.45,ENE,68,0.0,0.0,59,0.00,,BKN110,0.00,VWS V14.01,2013-01-25 08:55:00,
2013-01-25 04:00:00,16.9,5.4,30.45,ENE,69,0.0,2.0,60,0.00,,BKN110,0.00,VWS V14.01,2013-01-25 09:00:00,
2013-01-25 04:05:00,17.0,5.2,30.46,ENE,78,0.0,2.0,59,0.00,,OVC110,0.00,VWS V14.01,2013-01-25 09:05:00,
2013-01-25 04:10:00,17.0,5.5,30.46,East,79,0.0,2.0,60,0.00,,OVC110,0.00,VWS V14.01,2013-01-25 09:10:00,
2013-01-25 04:15:00,17.0,5.5,30.45,ENE,72,0.0,7.0,60,0.00,,OVC110,0.00,VWS V14.01,2013-01-25 09:15:00,
2013-01-25 04:20:00,16.9,5.4,30.43,East,90,3.0,3.0,60,0.00,,OVC110,0.00,VWS V14.01,2013-01-25 09:20:00,
2013-01-25 04:25:00,17.0,5.9,30.43,East,95,5.0,5.0,61,0.00,,OVC110,0.00,VWS V14.01,2013-01-25 09:25:00,
2013-01-25 04:30:00,17.0,5.9,30.43,ENE,78,0.0,5.0,61,0.00,,OVC110,0.00,VWS V14.01,2013-01-25 09:30:00,
2013-01-25 04:35:00,17.0,5.5,30.42,East,85,2.0,3.0,60,0.00,,OVC110,0.00,VWS V14.01,2013-01-25 09:35:00,
2013-01-25 04:40:00,17.0,5.5,30.42,East,83,0.0,3.0,60,0.00,,OVC110,0.00,VWS V14.01,2013-01-25 09:40:00,
2013-01-25 04:45:00,17.0,5.5,30.42,East,83,5.0,5.0,60,0.00,,OVC110,0.00,VWS V14.01,2013-01-25 09:45:00,
2013-01-25 04:50:00,17.0,5.5,30.41,ENE,72,2.0,5.0,60,0.00,,OVC110,0.00,VWS V14.01,2013-01-25 09:50:00,
2013-01-25 04:55:00,17.0,5.9,30.41,East,86,2.0,6.0,61,0.00,,OVC110,0.00,VWS V14.01,2013-01-25 09:55:00,
2013-01-25 05:00:00,17.0,5.9,30.40,East,92,0.0,7.0,61,0.00,,OVC110,0.00,VWS V14.01,2013-01-25 10:00:00,
2013-01-25 05:05:00,17.0,5.9,30.40,East,93,0.0,5.0,61,0.00,,BKN110,0.00,VWS V14.01,2013-01-25 10:05:00,
2013-01-25 05:10:00,17.0,5.9,30.39,East,89,0.0,5.0,61,0.00,,BKN110,0.00,VWS V14.01,2013-01-25 10:10:00,
2013-01-25 05:15:00,17.2,5.7,30.38,East,90,2.0,5.0,60,0.00,,BKN110,0.00,VWS V14.01,2013-01-25 10:15:00,
2013-01-25 05:20:00,17.2,6.1,30.38,East,96,3.0,5.0,61,0.00,,BKN110,0.00,VWS V14.01,2013-01-25 10:20:00,
2013-01-25 05:25:00,17.0,5.2,30.38,East,96,2.0,7.0,59,0.00,,BKN110,0.00,VWS V14.01,2013-01-25 10:25:00,
2013-01-25 05:30:00,17.2,5.3,30.33,East,96,2.0,6.0,59,0.00,,OVC100,0.00,VWS V14.01,2013-01-25 10:30:00,
2013-01-25 05:31:00,17.2,5.3,30.38,ESE,102,5.0,7.0,59,0.00,,BKN110,0.00,VWS V14.01,2013-01-25 10:31:00,
2013-01-25 05:36:00,17.2,5.3,30.37,East,92,0.0,6.0,59,0.00,,BKN110,0.00,VWS V14.01,2013-01-25 10:36:00,
2013-01-25 05:41:00,17.2,5.7,30.36,ESE,112,3.0,5.0,60,0.00,,BKN110,0.00,VWS V14.01,2013-01-25 10:41:00,
2013-01-25 05:45:00,17.5,6.4,30.35,East,97,0.0,0.0,61,0.00,,OVC100,0.00,VWS V14.01,2013-01-25 10:45:00,
2013-01-25 05:46:00,17.2,5.3,30.35,ESE,119,4.0,10.0,59,0.00,,BKN110,0.00,VWS V14.01,2013-01-25 10:46:00,
2013-01-25 05:51:00,17.0,5.2,30.34,ESE,107,2.0,10.0,59,0.00,,BKN110,0.00,VWS V14.01,2013-01-25 10:51:00,
2013-01-25 05:56:00,17.0,5.2,30.33,ESE,109,0.0,10.0,59,0.00,,BKN110,0.00,VWS V14.01,2013-01-25 10:56:00,
2013-01-25 06:00:00,17.7,6.6,30.34,East,99,0.0,0.0,61,0.00,,OVC100,0.00,VWS V14.01,2013-01-25 11:00:00,
2013-01-25 06:01:00,17.0,5.2,30.33,ESE,109,1.0,7.0,59,0.00,,OVC090,0.00,VWS V14.01,2013-01-25 11:01:00,
2013-01-25 06:06:00,17.0,5.5,30.33,East,95,0.0,7.0,60,0.00,,OVC090,0.00,VWS V14.01,2013-01-25 11:06:00,
2013-01-25 06:11:00,17.0,5.2,30.32,East,97,1.0,10.0,59,0.00,,OVC090,0.00,VWS V14.01,2013-01-25 11:11:00,
2013-01-25 06:15:00,17.7,6.6,30.32,ESE,103,2.0,5.0,61,0.00,,OVC100,0.00,VWS V14.01,2013-01-25 11:15:00,
2013-01-25 06:16:00,17.2,5.3,30.32,East,90,3.0,9.0,59,0.00,,OVC090,0.00,VWS V14.01,2013-01-25 11:16:00,
2013-01-25 06:21:00,17.2,5.0,30.33,East,88,5.0,6.0,58,0.00,,OVC090,0.00,VWS V14.01,2013-01-25 11:21:00,
2013-01-25 06:26:00,17.2,5.3,30.33,East,90,0.0,5.0,59,0.00,,OVC090,0.00,VWS V14.01,2013-01-25 11:26:00,
2013-01-25 06:30:00,17.0,7.6,30.32,ESE,116,1.0,6.0,66,0.00,,OVC100,0.00,VWS V14.01,2013-01-25 11:30:00,
2013-01-25 06:31:00,17.2,5.3,30.33,East,95,0.0,6.0,59,0.00,,OVC090,0.00,VWS V14.01,2013-01-25 11:31:00,
2013-01-25 06:36:00,17.3,5.4,30.35,East,99,0.0,2.0,59,0.00,,OVC090,0.00,VWS V14.01,2013-01-25 11:36:00,
2013-01-25 06:41:00,17.3,5.4,30.35,East,99,0.0,0.0,59,0.00,,OVC090,0.00,VWS V14.01,2013-01-25 11:41:00,
2013-01-25 06:45:00,16.9,8.5,30.31,ENE,73,1.0,4.0,69,0.00,,OVC100,0.00,VWS V14.01,2013-01-25 11:45:00,
2013-01-25 06:46:00,17.5,6.0,30.35,East,97,0.0,0.0,60,0.00,,OVC090,0.00,VWS V14.01,2013-01-25 11:46:00,
2013-01-25 06:51:00,17.5,5.6,30.34,East,99,0.0,0.0,59,0.00,,OVC090,0.00,VWS V14.01,2013-01-25 11:51:00,
2013-01-25 06:56:00,17.5,6.0,30.34,East,99,0.0,0.0,60,0.00,,OVC090,0.00,VWS V14.01,2013-01-25 11:56:00,
2013-01-25 07:00:00,17.0,7.6,30.29,East,86,3.0,5.0,66,0.00,,OVC100,0.00,VWS V14.01,2013-01-25 12:00:00,
2013-01-25 07:01:00,17.7,6.2,30.34,East,99,0.0,0.0,60,0.00,,OVC070,0.00,VWS V14.01,2013-01-25 12:01:00,
2013-01-25 07:06:00,17.7,6.2,30.33,East,89,0.0,3.0,60,0.00,,OVC070,0.00,VWS V14.01,2013-01-25 12:06:00,
2013-01-25 07:11:00,17.7,6.6,30.33,East,90,0.0,3.0,61,0.00,,OVC070,0.00,VWS V14.01,2013-01-25 12:11:00,
2013-01-25 07:15:00,17.3,7.9,30.27,NE,56,5.0,7.0,66,0.00,,OVC100,0.00,VWS V14.01,2013-01-25 12:15:00,
2013-01-25 07:16:00,17.7,6.6,30.32,East,83,0.0,5.0,61,0.00,,OVC070,0.00,VWS V14.01,2013-01-25 12:16:00,
2013-01-25 07:21:00,17.5,7.4,30.32,ESE,107,4.0,5.0,64,0.00,,OVC070,0.00,VWS V14.01,2013-01-25 12:21:00,
2013-01-25 07:27:00,17.2,7.8,30.32,East,100,2.0,5.0,66,0.00,,OVC070,0.00,VWS V14.01,2013-01-25 12:27:00,
2013-01-25 07:30:00,17.5,7.4,30.27,ENE,62,0.0,6.0,64,0.00,,OVC100,0.00,VWS V14.01,2013-01-25 12:30:00,
2013-01-25 07:32:00,16.9,7.8,30.32,ESE,110,0.0,6.0,67,0.00,,,0.00,VWS V14.01,2013-01-25 12:32:00,
2013-01-25 07:37:00,16.9,8.2,30.32,East,92,0.0,5.0,68,0.00,,,0.00,VWS V14.01,2013-01-25 12:37:00,
2013-01-25 07:42:00,16.9,8.5,30.31,East,92,0.0,3.0,69,0.00,,,0.00,VWS V14.01,2013-01-25 12:42:00,
2013-01-25 07:45:00,16.7,8.9,30.28,East,79,3.0,4.0,71,0.00,,OVC100,0.00,VWS V14.01,2013-01-25 12:45:00,
2013-01-25 07:47:00,16.9,8.2,30.31,East,93,0.0,4.0,68,0.00,,,0.00,VWS V14.01,2013-01-25 12:47:00,
2013-01-25 07:52:00,16.9,8.2,30.30,East,89,0.0,3.0,68,0.00,,,0.00,VWS V14.01,2013-01-25 12:52:00,
2013-01-25 07:57:00,17.0,7.6,30.30,East,86,0.0,5.0,66,0.00,,,0.00,VWS V14.01,2013-01-25 12:57:00,
2013-01-25 08:00:00,15.9,10.8,30.28,ESE,110,0.0,0.0,80,0.00,,OVC100,0.00,VWS V14.01,2013-01-25 13:00:00,
2013-01-25 08:02:00,17.0,7.6,30.29,East,83,0.0,5.0,66,0.00,,OVC050,0.00,VWS V14.01,2013-01-25 13:02:00,
2013-01-25 08:07:00,17.2,8.1,30.28,ENE,62,4.0,5.0,67,0.00,,OVC050,0.00,VWS V14.01,2013-01-25 13:07:00,
2013-01-25 08:12:00,17.3,7.9,30.27,ENE,75,5.0,7.0,66,0.00,,OVC050,0.00,VWS V14.01,2013-01-25 13:12:00,
2013-01-25 08:15:00,15.6,11.4,30.27,East,88,0.0,5.0,83,0.00,,OVC100,0.00,VWS V14.01,2013-01-25 13:15:00,
2013-01-25 08:17:00,17.3,7.6,30.27,East,97,3.0,7.0,65,0.00,,OVC050,0.00,VWS V14.01,2013-01-25 13:17:00,
2013-01-25 08:22:00,17.3,7.2,30.27,East,85,0.0,7.0,64,0.00,,OVC050,0.00,VWS V14.01,2013-01-25 13:22:00,
2013-01-25 08:27:00,17.5,7.4,30.27,NE,49,0.0,6.0,64,0.00,,OVC050,0.00,VWS V14.01,2013-01-25 13:27:00,
2013-01-25 08:30:00,15.7,11.7,30.26,East,88,0.0,3.0,84,0.00,,OVC100,0.00,VWS V14.01,2013-01-25 13:30:00,
2013-01-25 08:32:00,17.5,7.8,30.27,East,96,2.0,3.0,65,0.00,,OVC050,0.00,VWS V14.01,2013-01-25 13:32:00,
2013-01-25 08:37:00,17.3,8.2,30.28,SE,134,0.0,3.0,67,0.00,,OVC050,0.00,VWS V14.01,2013-01-25 13:37:00,
2013-01-25 08:42:00,16.9,8.8,30.28,ESE,103,0.0,3.0,70,0.00,,OVC050,0.00,VWS V14.01,2013-01-25 13:42:00,
2013-01-25 08:45:00,15.7,11.7,30.27,ENE,72,0.0,5.0,84,0.00,,OVC100,0.00,VWS V14.01,2013-01-25 13:45:00,
2013-01-25 08:47:00,16.5,9.7,30.28,ESE,102,0.0,7.0,74,0.00,,,0.00,VWS V14.01,2013-01-25 13:47:00,
2013-01-25 08:52:00,16.2,10.3,30.28,ESE,110,0.0,7.0,77,0.00,,,0.00,VWS V14.01,2013-01-25 13:52:00,
2013-01-25 08:57:00,16.1,10.8,30.28,ESE,112,0.0,0.0,79,0.00,,,0.00,VWS V14.01,2013-01-25 13:57:00,
2013-01-25 09:00:00,15.7,12.0,30.26,East,93,0.0,6.0,85,0.00,,OVC100,0.00,VWS V14.01,2013-01-25 14:00:00,
2013-01-25 09:02:00,15.9,10.8,30.28,East,92,0.0,5.0,80,0.00,,,0.00,VWS V14.01,2013-01-25 14:02:00,
2013-01-25 09:07:00,15.7,10.9,30.28,East,97,0.0,5.0,81,0.00,,,0.00,VWS V14.01,2013-01-25 14:07:00,
2013-01-25 09:12:00,15.6,11.1,30.28,East,90,0.0,5.0,82,0.00,,,0.00,VWS V14.01,2013-01-25 14:12:00,
2013-01-25 09:15:00,15.9,12.2,30.25,East,92,2.0,5.0,85,0.01,,OVC100,0.01,VWS V14.01,2013-01-25 14:15:00,
2013-01-25 09:17:00,15.7,11.5,30.27,East,82,0.0,2.0,83,0.00,,,0.00,VWS V14.01,2013-01-25 14:17:00,
2013-01-25 09:22:00,15.7,11.5,30.27,East,88,0.0,5.0,83,0.00,,,0.00,VWS V14.01,2013-01-25 14:22:00,
2013-01-25 09:28:00,15.7,11.7,30.27,East,89,2.0,3.0,84,0.00,,,0.00,VWS V14.01,2013-01-25 14:28:00,
2013-01-25 09:30:00,16.1,12.4,30.23,East,80,0.0,2.0,85,0.02,,OVC100,0.02,VWS V14.01,2013-01-25 14:30:00,
2013-01-25 09:33:00,15.7,11.7,30.26,ENE,62,0.0,4.0,84,0.00,,,0.00,VWS V14.01,2013-01-25 14:33:00,
2013-01-25 09:38:00,15.7,11.7,30.26,East,96,3.0,6.0,84,0.00,,,0.00,VWS V14.01,2013-01-25 14:38:00,
2013-01-25 09:43:00,15.7,11.7,30.27,ENE,71,0.0,5.0,84,0.00,,,0.00,VWS V14.01,2013-01-25 14:43:00,
2013-01-25 09:45:00,16.4,12.7,30.22,East,99,0.0,7.0,85,0.03,,OVC100,0.03,VWS V14.01,2013-01-25 14:45:00,
2013-01-25 09:48:00,15.7,12.0,30.27,ENE,72,0.0,2.0,85,0.00,,,0.00,VWS V14.01,2013-01-25 14:48:00,
2013-01-25 09:53:00,15.7,12.0,30.27,East,86,2.0,3.0,85,0.00,,,0.00,VWS V14.01,2013-01-25 14:53:00,
2013-01-25 09:58:00,15.7,12.0,30.26,East,95,6.0,6.0,85,0.00,,,0.00,VWS V14.01,2013-01-25 14:58:00,
2013-01-25 10:00:00,16.7,13.0,30.21,East,95,4.0,5.0,85,0.03,,OVC100,0.03,VWS V14.01,2013-01-25 15:00:00,
2013-01-25 10:03:00,15.7,12.0,30.26,East,90,0.0,7.0,85,0.00,,,0.00,VWS V14.01,2013-01-25 15:03:00,
2013-01-25 10:08:00,15.9,12.2,30.25,ENE,78,0.0,6.0,85,0.00,,,0.00,VWS V14.01,2013-01-25 15:08:00,
2013-01-25 10:13:00,15.9,12.2,30.25,East,97,0.0,5.0,85,0.01,,,0.01,VWS V14.01,2013-01-25 15:13:00,
2013-01-25 10:15:00,16.9,13.2,30.20,East,97,1.0,3.0,85,0.04,,OVC100,0.04,VWS V14.01,2013-01-25 15:15:00,
2013-01-25 10:18:00,15.9,12.2,30.25,East,82,0.0,5.0,85,0.01,,,0.01,VWS V14.01,2013-01-25 15:18:00,
2013-01-25 10:23:00,16.1,12.4,30.24,East,83,0.0,5.0,85,0.01,,,0.01,VWS V14.01,2013-01-25 15:23:00,
2013-01-25 10:28:00,16.1,12.4,30.24,East,80,0.0,3.0,85,0.01,,,0.01,VWS V14.01,2013-01-25 15:28:00,
2013-01-25 10:30:00,17.3,13.8,30.19,ESE,121,0.0,0.0,86,0.04,,OVC100,0.05,VWS V14.01,2013-01-25 15:30:00,
2013-01-25 10:33:00,16.2,12.5,30.23,East,93,5.0,5.0,85,0.02,,,0.02,VWS V14.01,2013-01-25 15:33:00,
2013-01-25 10:38:00,16.2,12.5,30.23,East,86,0.0,5.0,85,0.02,,,0.02,VWS V14.01,2013-01-25 15:38:00,
2013-01-25 10:43:00,16.4,12.7,30.22,East,99,0.0,7.0,85,0.03,,,0.03,VWS V14.01,2013-01-25 15:43:00,
2013-01-25 10:45:00,18.0,14.3,30.19,East,99,1.0,6.0,85,0.04,,OVC100,0.06,VWS V14.01,2013-01-25 15:45:00,
2013-01-25 10:48:00,16.4,12.7,30.22,East,89,2.0,5.0,85,0.03,,,0.03,VWS V14.01,2013-01-25 15:48:00,
2013-01-25 10:53:00,16.5,12.8,30.22,ENE,75,0.0,5.0,85,0.03,,,0.03,VWS V14.01,2013-01-25 15:53:00,
2013-01-25 10:58:00,16.5,12.8,30.22,East,93,1.0,5.0,85,0.03,,,0.03,VWS V14.01,2013-01-25 15:58:00,
2013-01-25 11:00:00,17.8,13.8,30.18,SE,124,1.0,3.0,84,0.04,,OVC100,0.07,VWS V14.01,2013-01-25 16:00:00,
2013-01-25 11:03:00,16.7,13.0,30.21,East,95,1.0,6.0,85,0.04,,,0.04,VWS V14.01,2013-01-25 16:03:00,
2013-01-25 11:08:00,16.9,13.2,30.21,SE,131,0.0,6.0,85,0.04,,,0.04,VWS V14.01,2013-01-25 16:08:00,
2013-01-25 11:13:00,16.9,13.2,30.20,East,92,1.0,3.0,85,0.04,,,0.04,VWS V14.01,2013-01-25 16:13:00,
2013-01-25 11:15:00,17.7,14.0,30.17,SE,140,0.0,3.0,85,0.04,,OVC100,0.07,VWS V14.01,2013-01-25 16:15:00,
2013-01-25 11:18:00,16.9,13.2,30.20,SE,140,0.0,3.0,85,0.03,,,0.04,VWS V14.01,2013-01-25 16:18:00,
2013-01-25 11:23:00,17.0,13.3,30.19,SE,128,0.0,3.0,85,0.04,,,0.05,VWS V14.01,2013-01-25 16:23:00,
2013-01-25 11:29:00,17.2,13.7,30.19,ESE,114,0.0,0.0,86,0.04,,,0.05,VWS V14.01,2013-01-25 16:29:00,
2013-01-25 11:30:00,18.1,14.4,30.16,East,83,0.0,0.0,85,0.04,,OVC100,0.08,VWS V14.01,2013-01-25 16:30:00,
2013-01-25 11:33:00,17.5,14.0,30.19,ESE,121,0.0,0.0,86,0.03,,,0.05,VWS V14.01,2013-01-25 16:33:00,
2013-01-25 11:39:00,17.8,14.1,30.19,East,88,0.0,0.0,85,0.03,,,0.05,VWS V14.01,2013-01-25 16:39:00,
2013-01-25 11:44:00,17.8,14.1,30.19,East,97,6.0,6.0,85,0.04,,,0.06,VWS V14.01,2013-01-25 16:44:00,
2013-01-25 11:45:00,18.8,15.1,30.16,East,83,0.0,0.0,85,0.04,,OVC100,0.09,VWS V14.01,2013-01-25 16:45:00,
2013-01-25 11:49:00,18.0,14.3,30.19,East,86,2.0,6.0,85,0.03,,,0.06,VWS V14.01,2013-01-25 16:49:00,
2013-01-25 11:54:00,18.0,14.3,30.18,East,90,0.0,3.0,85,0.03,,,0.06,VWS V14.01,2013-01-25 16:54:00,
2013-01-25 11:59:00,17.8,13.8,30.18,East,95,2.0,3.0,84,0.04,,,0.07,VWS V14.01,2013-01-25 16:59:00,
2013-01-25 12:00:00,18.6,14.6,30.14,East,83,0.0,0.0,84,0.03,,OVC100,0.09,VWS V14.01,2013-01-25 17:00:00,
2013-01-25 12:04:00,17.7,13.7,30.18,East,96,2.0,3.0,84,0.04,,,0.07,VWS V14.01,2013-01-25 17:04:00,
2013-01-25 12:09:00,17.7,13.7,30.17,SE,133,0.0,3.0,84,0.04,,,0.07,VWS V14.01,2013-01-25 17:09:00,
2013-01-25 12:14:00,17.7,14.0,30.17,SE,140,0.0,2.0,85,0.04,,,0.07,VWS V14.01,2013-01-25 17:14:00,
2013-01-25 12:15:00,18.8,14.8,30.13,East,83,0.0,0.0,84,0.03,,OVC100,0.10,VWS V14.01,2013-01-25 17:15:00,
2013-01-25 12:19:00,17.7,14.0,30.17,East,83,0.0,3.0,85,0.04,,,0.08,VWS V14.01,2013-01-25 17:19:00,
2013-01-25 12:24:00,18.0,14.3,30.17,East,83,0.0,1.0,85,0.04,,,0.08,VWS V14.01,2013-01-25 17:24:00,
2013-01-25 12:29:00,18.1,14.4,30.16,East,83,0.0,0.0,85,0.04,,,0.08,VWS V14.01,2013-01-25 17:29:00,
2013-01-25 12:30:00,19.1,15.1,30.13,East,83,0.0,0.0,84,0.03,,OVC100,0.10,VWS V14.01,2013-01-25 17:30:00,
2013-01-25 12:34:00,18.4,14.6,30.16,East,83,0.0,0.0,85,0.04,,,0.09,VWS V14.01,2013-01-25 17:34:00,
2013-01-25 12:39:00,18.6,14.9,30.16,East,83,0.0,0.0,85,0.04,,,0.09,VWS V14.01,2013-01-25 17:39:00,
2013-01-25 12:44:00,18.8,15.1,30.16,East,83,0.0,0.0,85,0.04,,,0.09,VWS V14.01,2013-01-25 17:44:00,
2013-01-25 12:45:00,19.4,15.4,30.13,East,83,0.0,0.0,84,0.03,,OVC100,0.11,VWS V14.01,2013-01-25 17:45:00,
2013-01-25 12:49:00,18.8,15.1,30.16,East,83,0.0,0.0,85,0.03,,,0.09,VWS V14.01,2013-01-25 17:49:00,
2013-01-25 12:54:00,18.8,14.8,30.16,East,83,0.0,0.0,84,0.03,,,0.09,VWS V14.01,2013-01-25 17:54:00,
2013-01-25 12:59:00,18.6,14.6,30.14,East,83,0.0,0.0,84,0.03,,,0.09,VWS V14.01,2013-01-25 17:59:00,
2013-01-25 13:00:00,20.2,16.1,30.11,South,179,0.0,2.0,84,0.02,,OVC100,0.11,VWS V14.01,2013-01-25 18:00:00,
2013-01-25 13:04:00,18.6,14.9,30.14,East,83,0.0,0.0,85,0.03,,,0.10,VWS V14.01,2013-01-25 18:04:00,
2013-01-25 13:09:00,18.8,15.1,30.14,East,83,0.0,0.0,85,0.03,,,0.10,VWS V14.01,2013-01-25 18:09:00,
2013-01-25 13:14:00,18.8,14.8,30.13,East,83,0.0,0.0,84,0.03,,,0.10,VWS V14.01,2013-01-25 18:14:00,
2013-01-25 13:15:00,21.3,17.2,30.11,South,179,0.0,0.0,84,0.02,,OVC100,0.11,VWS V14.01,2013-01-25 18:15:00,
2013-01-25 13:19:00,18.8,14.8,30.13,East,83,0.0,0.0,84,0.03,,,0.10,VWS V14.01,2013-01-25 18:19:00,
2013-01-25 13:24:00,18.9,14.9,30.13,East,83,0.0,0.0,84,0.03,,,0.10,VWS V14.01,2013-01-25 18:24:00,
2013-01-25 13:29:00,19.1,15.1,30.13,East,83,0.0,0.0,84,0.03,,,0.10,VWS V14.01,2013-01-25 18:29:00,
2013-01-25 13:30:00,21.9,17.8,30.10,South,179,0.0,2.0,84,0.01,,OVC100,0.11,VWS V14.01,2013-01-25 18:30:00,
2013-01-25 13:34:00,19.2,15.2,30.13,East,83,0.0,0.0,84,0.03,,,0.11,VWS V14.01,2013-01-25 18:34:00,
2013-01-25 13:39:00,19.4,15.4,30.13,East,83,0.0,0.0,84,0.03,,,0.11,VWS V14.01,2013-01-25 18:39:00,
2013-01-25 13:44:00,19.4,15.4,30.13,East,83,0.0,0.0,84,0.03,,,0.11,VWS V14.01,2013-01-25 18:44:00,
2013-01-25 13:45:00,22.2,17.3,30.09,South,179,0.0,0.0,81,0.02,,OVC100,0.12,VWS V14.01,2013-01-25 18:45:00,
2013-01-25 13:49:00,19.5,15.5,30.13,East,83,0.0,0.0,84,0.02,,,0.11,VWS V14.01,2013-01-25 18:49:00,
2013-01-25 13:55:00,19.7,15.9,30.12,East,85,0.0,0.0,85,0.02,,,0.11,VWS V14.01,2013-01-25 18:55:00,
2013-01-25 14:00:00,20.2,16.1,30.11,South,179,0.0,2.0,84,0.02,,,0.11,VWS V14.01,2013-01-25 19:00:00,
2013-01-25 14:05:00,20.5,16.4,30.11,South,179,0.0,0.0,84,0.02,,,0.11,VWS V14.01,2013-01-25 19:05:00,
2013-01-25 14:10:00,21.0,16.9,30.11,South,179,0.0,0.0,84,0.02,,,0.11,VWS V14.01,2013-01-25 19:10:00,
2013-01-25 14:15:00,21.3,17.2,30.11,South,179,0.0,0.0,84,0.01,,,0.11,VWS V14.01,2013-01-25 19:15:00,
2013-01-25 14:20:00,21.6,17.5,30.10,South,179,1.0,2.0,84,0.01,,,0.11,VWS V14.01,2013-01-25 19:20:00,
2013-01-25 14:25:00,21.8,17.4,30.10,South,179,0.0,2.0,83,0.01,,,0.11,VWS V14.01,2013-01-25 19:25:00,
2013-01-25 14:30:00,21.9,17.8,30.10,South,179,0.0,2.0,84,0.01,,,0.11,VWS V14.01,2013-01-25 19:30:00,
2013-01-25 14:35:00,22.2,17.8,30.10,South,179,0.0,0.0,83,0.01,,,0.11,VWS V14.01,2013-01-25 19:35:00,
2013-01-25 14:40:00,22.4,17.8,30.10,South,179,0.0,0.0,82,0.01,,,0.11,VWS V14.01,2013-01-25 19:40:00,
2013-01-25 14:45:00,22.2,17.3,30.09,South,179,0.0,0.0,81,0.01,,,0.12,VWS V14.01,2013-01-25 19:45:00,
2013-01-25 14:50:00,22.2,17.3,30.09,South,179,0.0,0.0,81,0.01,,,0.12,VWS V14.01,2013-01-25 19:50:00,
2013-01-25 14:55:00,22.2,17.5,30.09,South,179,0.0,0.0,82,0.01,,,0.12,VWS V14.01,2013-01-25 19:55:00,
2013-01-25 15:00:00,22.4,17.8,30.09,South,179,0.0,0.0,82,0.01,,,0.12,VWS V14.01,2013-01-25 20:00:00,
2013-01-25 15:05:00,22.4,17.5,30.10,South,179,0.0,0.0,81,0.01,,OVC055,0.12,VWS V14.01,2013-01-25 20:05:00,
2013-01-25 15:10:00,22.5,17.9,30.09,South,179,0.0,0.0,82,0.01,,OVC055,0.12,VWS V14.01,2013-01-25 20:10:00,
2013-01-25 15:15:00,22.9,18.2,30.09,South,179,0.0,0.0,82,0.01,,OVC055,0.12,VWS V14.01,2013-01-25 20:15:00,
2013-01-25 15:20:00,23.3,18.6,30.09,South,179,0.0,0.0,82,0.01,,OVC055,0.12,VWS V14.01,2013-01-25 20:20:00,
2013-01-25 15:25:00,22.9,18.0,30.09,South,182,0.0,0.0,81,0.01,,OVC055,0.12,VWS V14.01,2013-01-25 20:25:00,
2013-01-25 15:30:00,22.9,18.0,30.09,South,182,0.0,0.0,81,0.01,,OVC055,0.12,VWS V14.01,2013-01-25 20:30:00,
2013-01-25 15:35:00,23.2,18.2,30.08,South,182,0.0,0.0,81,0.01,,OVC055,0.12,VWS V14.01,2013-01-25 20:35:00,
2013-01-25 15:40:00,23.3,18.6,30.08,South,182,0.0,0.0,82,0.01,,OVC055,0.12,VWS V14.01,2013-01-25 20:40:00,
2013-01-25 15:45:00,23.5,18.5,30.09,South,182,0.0,0.0,81,0.00,,OVC055,0.12,VWS V14.01,2013-01-25 20:45:00,
2013-01-25 15:50:00,23.3,18.3,30.09,South,182,0.0,0.0,81,0.00,,OVC055,0.12,VWS V14.01,2013-01-25 20:50:00,
2013-01-25 15:56:00,23.0,18.0,30.08,South,182,0.0,0.0,81,0.00,,OVC055,0.12,VWS V14.01,2013-01-25 20:56:00,
2013-01-25 16:00:00,21.4,16.5,30.09,WSW,241,2.0,5.0,81,0.00,,OVC100,0.12,VWS V14.01,2013-01-25 21:00:00,
2013-01-25 16:01:00,22.7,17.8,30.08,South,182,0.0,0.0,81,0.00,,OVC050,0.12,VWS V14.01,2013-01-25 21:01:00,
2013-01-25 16:06:00,22.9,18.2,30.08,South,182,0.0,0.0,82,0.00,,OVC050,0.12,VWS V14.01,2013-01-25 21:06:00,
2013-01-25 16:11:00,23.0,18.0,30.08,South,182,0.0,0.0,81,0.00,,OVC050,0.12,VWS V14.01,2013-01-25 21:11:00,
2013-01-25 16:15:00,21.0,16.4,30.10,WSW,237,0.0,0.0,82,0.00,,OVC100,0.12,VWS V14.01,2013-01-25 21:15:00,
2013-01-25 16:16:00,23.0,18.0,30.08,South,184,0.0,0.0,81,0.00,,OVC050,0.12,VWS V14.01,2013-01-25 21:16:00,
2013-01-25 16:21:00,22.5,17.3,30.08,WSW,243,3.0,3.0,80,0.00,,OVC050,0.12,VWS V14.01,2013-01-25 21:21:00,
2013-01-25 16:26:00,22.1,16.9,30.09,SW,226,5.0,5.0,80,0.00,,OVC050,0.12,VWS V14.01,2013-01-25 21:26:00,
2013-01-25 16:30:00,20.8,16.2,30.11,SW,224,0.0,3.0,82,0.00,,OVC100,0.12,VWS V14.01,2013-01-25 21:30:00,
2013-01-25 16:31:00,21.8,16.9,30.09,SW,222,0.0,6.0,81,0.00,,OVC050,0.12,VWS V14.01,2013-01-25 21:31:00,
2013-01-25 16:36:00,21.4,16.5,30.09,SW,222,0.0,3.0,81,0.00,,OVC050,0.12,VWS V14.01,2013-01-25 21:36:00,
2013-01-25 16:41:00,21.4,16.5,30.09,SW,222,0.0,2.0,81,0.00,,OVC050,0.12,VWS V14.01,2013-01-25 21:41:00,
2013-01-25 16:45:00,20.6,16.0,30.10,SW,224,0.0,0.0,82,0.00,,OVC100,0.12,VWS V14.01,2013-01-25 21:45:00,
2013-01-25 16:46:00,21.4,16.5,30.09,SW,222,0.0,0.0,81,0.00,,OVC050,0.12,VWS V14.01,2013-01-25 21:46:00,
2013-01-25 16:51:00,21.4,16.8,30.09,SW,226,0.0,2.0,82,0.00,,OVC050,0.12,VWS V14.01,2013-01-25 21:51:00,
2013-01-25 16:56:00,21.4,16.5,30.09,SW,226,0.0,2.0,81,0.00,,OVC050,0.12,VWS V14.01,2013-01-25 21:56:00,
2013-01-25 17:00:00,20.3,15.7,30.11,SW,236,0.0,2.0,82,0.00,,OVC100,0.12,VWS V14.01,2013-01-25 22:00:00,
2013-01-25 17:01:00,21.4,16.5,30.09,SW,236,2.0,5.0,81,0.00,,OVC050,0.12,VWS V14.01,2013-01-25 22:01:00,
2013-01-25 17:06:00,21.1,16.2,30.10,SW,236,0.0,5.0,81,0.00,,OVC017,0.12,VWS V14.01,2013-01-25 22:06:00,
2013-01-25 17:11:00,21.1,16.2,30.10,SW,236,0.0,0.0,81,0.00,,OVC017,0.12,VWS V14.01,2013-01-25 22:11:00,
2013-01-25 17:15:00,20.3,15.7,30.11,SW,234,0.0,0.0,82,0.00,,OVC100,0.12,VWS V14.01,2013-01-25 22:15:00,
2013-01-25 17:16:00,21.0,16.4,30.10,SW,236,0.0,0.0,82,0.00,,OVC017,0.12,VWS V14.01,2013-01-25 22:16:00,
2013-01-25 17:21:00,21.0,16.4,30.11,SW,234,1.0,1.0,82,0.00,,OVC017,0.12,VWS V14.01,2013-01-25 22:21:00,
2013-01-25 17:26:00,20.8,16.2,30.11,SW,224,0.0,4.0,82,0.00,,OVC017,0.12,VWS V14.01,2013-01-25 22:26:00,
2013-01-25 17:30:00,20.2,15.9,30.12,SW,233,0.0,2.0,83,0.00,,OVC100,0.12,VWS V14.01,2013-01-25 22:30:00,
2013-01-25 17:31:00,20.8,16.2,30.11,SW,224,0.0,1.0,82,0.00,,OVC017,0.12,VWS V14.01,2013-01-25 22:31:00,
2013-01-25 17:36:00,20.8,16.2,30.10,SW,224,0.0,0.0,82,0.00,,OVC017,0.12,VWS V14.01,2013-01-25 22:36:00,
2013-01-25 17:41:00,20.8,16.2,30.10,SW,224,0.0,0.0,82,0.00,,OVC017,0.12,VWS V14.01,2013-01-25 22:41:00,
2013-01-25 17:45:00,20.2,15.9,30.12,West,265,0.0,3.0,83,0.00,,OVC100,0.12,VWS V14.01,2013-01-25 22:45:00,
2013-01-25 17:46:00,20.6,16.0,30.10,SW,224,0.0,0.0,82,0.00,,OVC017,0.12,VWS V14.01,2013-01-25 22:46:00,
2013-01-25 17:51:00,20.5,15.9,30.10,WSW,239,0.0,4.0,82,0.00,,OVC017,0.12,VWS V14.01,2013-01-25 22:51:00,
2013-01-25 17:56:00,20.5,15.9,30.11,WSW,237,0.0,3.0,82,0.00,,OVC017,0.12,VWS V14.01,2013-01-25 22:56:00,
2013-01-25 18:00:00,20.3,16.0,30.13,SW,236,1.0,4.0,83,0.00,,OVC100,0.12,VWS V14.01,2013-01-25 23:00:00,
2013-01-25 18:01:00,20.3,15.7,30.11,SW,236,0.0,1.0,82,0.00,,OVC046,0.12,VWS V14.01,2013-01-25 23:01:00,
2013-01-25 18:06:00,20.3,15.7,30.11,WSW,237,0.0,2.0,82,0.00,,OVC046,0.12,VWS V14.01,2013-01-25 23:06:00,
2013-01-25 18:11:00,20.3,15.7,30.11,WSW,237,0.0,2.0,82,0.00,,OVC046,0.12,VWS V14.01,2013-01-25 23:11:00,
2013-01-25 18:15:00,20.2,15.9,30.13,WSW,254,0.0,3.0,83,0.00,,OVC100,0.12,VWS V14.01,2013-01-25 23:15:00,
2013-01-25 18:17:00,20.3,15.7,30.11,SW,234,0.0,0.0,82,0.00,,OVC046,0.12,VWS V14.01,2013-01-25 23:17:00,
2013-01-25 18:22:00,20.3,15.7,30.12,SW,232,0.0,0.0,82,0.00,,OVC046,0.12,VWS V14.01,2013-01-25 23:22:00,
2013-01-25 18:27:00,20.2,15.9,30.12,SW,233,0.0,2.0,83,0.00,,OVC046,0.12,VWS V14.01,2013-01-25 23:27:00,
2013-01-25 18:30:00,20.2,15.9,30.13,SW,232,0.0,3.0,83,0.00,,OVC100,0.12,VWS V14.01,2013-01-25 23:30:00,
2013-01-25 18:32:00,20.3,16.0,30.12,SW,232,0.0,2.0,83,0.00,,OVC046,0.12,VWS V14.01,2013-01-25 23:32:00,
2013-01-25 18:37:00,20.2,15.9,30.12,WSW,251,2.0,7.0,83,0.00,,OVC046,0.12,VWS V14.01,2013-01-25 23:37:00,
2013-01-25 18:42:00,20.2,15.9,30.12,WSW,241,0.0,6.0,83,0.00,,OVC046,0.12,VWS V14.01,2013-01-25 23:42:00,
2013-01-25 18:45:00,20.2,15.9,30.13,SSW,205,0.0,4.0,83,0.00,,OVC100,0.12,VWS V14.01,2013-01-25 23:45:00,
2013-01-25 18:47:00,20.2,15.9,30.12,West,265,0.0,3.0,83,0.00,,OVC046,0.12,VWS V14.01,2013-01-25 23:47:00,
2013-01-25 18:52:00,20.3,16.0,30.12,West,265,0.0,1.0,83,0.00,,OVC046,0.12,VWS V14.01,2013-01-25 23:52:00,
2013-01-25 18:57:00,20.3,16.0,30.12,West,264,0.0,0.0,83,0.00,,OVC046,0.12,VWS V14.01,2013-01-25 23:57:00,
2013-01-25 19:00:00,20.2,16.1,30.13,SSW,205,0.0,0.0,84,0.00,,OVC100,0.12,VWS V14.01,2013-01-26 00:00:00,
2013-01-25 19:02:00,20.3,16.0,30.13,WSW,248,0.0,4.0,83,0.00,,OVC041,0.12,VWS V14.01,2013-01-26 00:02:00,
2013-01-25 19:07:00,20.2,15.9,30.13,WSW,257,0.0,5.0,83,0.00,,OVC041,0.12,VWS V14.01,2013-01-26 00:07:00,
2013-01-25 19:12:00,20.2,15.9,30.13,WSW,257,0.0,5.0,83,0.00,,OVC041,0.12,VWS V14.01,2013-01-26 00:12:00,
2013-01-25 19:15:00,20.3,16.0,30.13,SW,226,2.0,3.0,83,0.00,,OVC100,0.12,VWS V14.01,2013-01-26 00:15:00,
2013-01-25 19:17:00,20.2,15.9,30.13,WSW,254,0.0,3.0,83,0.00,,OVC041,0.12,VWS V14.01,2013-01-26 00:17:00,
2013-01-25 19:22:00,20.2,15.9,30.13,WSW,253,0.0,0.0,83,0.00,,OVC041,0.12,VWS V14.01,2013-01-26 00:22:00,
2013-01-25 19:27:00,20.2,15.9,30.14,SW,232,0.0,3.0,83,0.00,,OVC041,0.12,VWS V14.01,2013-01-26 00:27:00,
2013-01-25 19:30:00,20.5,16.4,30.13,SSW,212,0.0,3.0,84,0.00,,OVC100,0.12,VWS V14.01,2013-01-26 00:30:00,
2013-01-25 19:32:00,20.2,15.9,30.13,SW,232,1.0,3.0,83,0.00,,OVC041,0.12,VWS V14.01,2013-01-26 00:32:00,
2013-01-25 19:37:00,20.0,15.7,30.13,WSW,240,0.0,3.0,83,0.00,,OVC041,0.12,VWS V14.01,2013-01-26 00:37:00,
2013-01-25 19:42:00,20.2,15.9,30.13,SSW,205,0.0,4.0,83,0.00,,OVC041,0.12,VWS V14.01,2013-01-26 00:42:00,
2013-01-25 19:45:00,20.6,16.5,30.14,SSW,209,0.0,3.0,84,0.00,,OVC100,0.12,VWS V14.01,2013-01-26 00:45:00,
2013-01-25 19:47:00,20.2,15.9,30.13,SSW,205,0.0,4.0,83,0.00,,OVC041,0.12,VWS V14.01,2013-01-26 00:47:00,
2013-01-25 19:52:00,20.2,15.9,30.13,SSW,205,0.0,0.0,83,0.00,,OVC041,0.12,VWS V14.01,2013-01-26 00:52:00,
2013-01-25 19:57:00,20.2,15.9,30.13,SSW,205,0.0,0.0,83,0.00,,OVC041,0.12,VWS V14.01,2013-01-26 00:57:00,
2013-01-25 20:00:00,20.8,16.7,30.15,WSW,240,0.0,5.0,84,0.00,,OVC100,0.12,VWS V14.01,2013-01-26 01:00:00,
2013-01-25 20:02:00,20.3,16.2,30.13,SSW,205,0.0,0.0,84,0.00,,OVC037,0.12,VWS V14.01,2013-01-26 01:02:00,
2013-01-25 20:07:00,20.3,16.2,30.13,SSW,205,0.0,0.0,84,0.00,,OVC037,0.12,VWS V14.01,2013-01-26 01:07:00,
2013-01-25 20:12:00,20.3,16.0,30.13,SW,226,0.0,3.0,83,0.00,,OVC037,0.12,VWS V14.01,2013-01-26 01:12:00,
2013-01-25 20:15:00,21.1,17.0,30.14,South,191,1.0,5.0,84,0.00,,OVC100,0.12,VWS V14.01,2013-01-26 01:15:00,
2013-01-25 20:17:00,20.3,16.0,30.13,SW,224,0.0,3.0,83,0.00,,OVC037,0.12,VWS V14.01,2013-01-26 01:17:00,
2013-01-25 20:22:00,20.3,16.2,30.13,SSW,212,0.0,5.0,84,0.00,,OVC037,0.12,VWS V14.01,2013-01-26 01:22:00,
2013-01-25 20:27:00,20.3,16.2,30.13,SSW,212,0.0,3.0,84,0.00,,OVC037,0.12,VWS V14.01,2013-01-26 01:27:00,
2013-01-25 20:30:00,21.3,17.2,30.17,SW,236,0.0,6.0,84,0.00,,OVC100,0.12,VWS V14.01,2013-01-26 01:30:00,
2013-01-25 20:32:00,20.5,16.4,30.13,SSW,212,0.0,3.0,84,0.00,,OVC037,0.12,VWS V14.01,2013-01-26 01:32:00,
2013-01-25 20:38:00,20.5,16.4,30.13,SSW,212,0.0,3.0,84,0.00,,OVC037,0.12,VWS V14.01,2013-01-26 01:38:00,
2013-01-25 20:43:00,20.6,16.5,30.13,SSW,209,0.0,3.0,84,0.00,,OVC037,0.12,VWS V14.01,2013-01-26 01:43:00,
2013-01-25 20:45:00,21.6,17.5,30.18,West,264,0.0,7.0,84,0.00,,OVC100,0.12,VWS V14.01,2013-01-26 01:45:00,
2013-01-25 20:48:00,20.8,16.7,30.14,SSW,210,0.0,3.0,84,0.00,,OVC037,0.12,VWS V14.01,2013-01-26 01:48:00,
2013-01-25 20:53:00,20.8,16.7,30.14,SSW,210,0.0,2.0,84,0.00,,OVC037,0.12,VWS V14.01,2013-01-26 01:53:00,
2013-01-25 20:58:00,20.8,16.7,30.15,WSW,240,1.0,5.0,84,0.00,,OVC037,0.12,VWS V14.01,2013-01-26 01:58:00,
2013-01-25 21:00:00,21.8,17.7,30.18,West,263,0.0,5.0,84,0.00,,OVC100,0.12,VWS V14.01,2013-01-26 02:00:00,
2013-01-25 21:03:00,21.0,16.9,30.15,SW,217,3.0,3.0,84,0.00,,OVC035,0.12,VWS V14.01,2013-01-26 02:03:00,
2013-01-25 21:08:00,21.0,16.9,30.15,SW,219,0.0,5.0,84,0.00,,OVC035,0.12,VWS V14.01,2013-01-26 02:08:00,
2013-01-25 21:13:00,21.1,17.0,30.14,SSE,147,2.0,5.0,84,0.00,,OVC035,0.12,VWS V14.01,2013-01-26 02:13:00,
2013-01-25 21:15:00,21.8,17.7,30.18,West,275,0.0,5.0,84,0.00,,OVC100,0.12,VWS V14.01,2013-01-26 02:15:00,
2013-01-25 21:18:00,21.1,17.0,30.14,SSW,212,4.0,5.0,84,0.00,,OVC035,0.12,VWS V14.01,2013-01-26 02:18:00,
2013-01-25 21:23:00,21.1,17.0,30.15,SW,217,3.0,6.0,84,0.00,,OVC035,0.12,VWS V14.01,2013-01-26 02:23:00,
2013-01-25 21:28:00,21.3,17.2,30.16,SW,236,0.0,6.0,84,0.00,,OVC035,0.12,VWS V14.01,2013-01-26 02:28:00,
2013-01-25 21:30:00,21.9,17.8,30.18,WSW,248,3.0,5.0,84,0.00,,OVC100,0.12,VWS V14.01,2013-01-26 02:30:00,
2013-01-25 21:33:00,21.3,17.2,30.17,West,281,0.0,4.0,84,0.00,,OVC035,0.12,VWS V14.01,2013-01-26 02:33:00,
2013-01-25 21:38:00,21.4,17.3,30.17,WSW,241,0.0,4.0,84,0.00,,OVC035,0.12,VWS V14.01,2013-01-26 02:38:00,
2013-01-25 21:43:00,21.6,17.5,30.17,West,264,2.0,7.0,84,0.00,,OVC035,0.12,VWS V14.01,2013-01-26 02:43:00,
2013-01-25 21:45:00,21.9,18.1,30.18,SSW,209,0.0,3.0,85,0.00,,OVC100,0.12,VWS V14.01,2013-01-26 02:45:00,
2013-01-25 21:48:00,21.6,17.5,30.18,West,272,0.0,7.0,84,0.00,,OVC035,0.12,VWS V14.01,2013-01-26 02:48:00,
2013-01-25 21:53:00,21.8,17.7,30.18,West,267,0.0,5.0,84,0.00,,OVC035,0.12,VWS V14.01,2013-01-26 02:53:00,
2013-01-25 21:58:00,21.8,17.7,30.18,West,263,0.0,5.0,84,0.00,,OVC035,0.12,VWS V14.01,2013-01-26 02:58:00,
2013-01-25 22:00:00,22.2,18.7,30.18,SW,234,0.0,4.0,86,0.00,,OVC100,0.12,VWS V14.01,2013-01-26 03:00:00,
2013-01-25 22:03:00,21.8,17.7,30.18,West,261,0.0,4.0,84,0.00,,OVC035,0.12,VWS V14.01,2013-01-26 03:03:00,
2013-01-25 22:08:00,21.8,17.7,30.18,WSW,248,0.0,5.0,84,0.00,,OVC035,0.12,VWS V14.01,2013-01-26 03:08:00,
2013-01-25 22:13:00,21.8,17.7,30.18,West,271,2.0,5.0,84,0.00,,OVC035,0.12,VWS V14.01,2013-01-26 03:13:00,
2013-01-25 22:15:00,22.2,18.9,30.18,SW,224,0.0,6.0,87,0.00,,OVC100,0.12,VWS V14.01,2013-01-26 03:15:00,
2013-01-25 22:18:00,21.8,17.7,30.18,WNW,287,0.0,5.0,84,0.00,,OVC035,0.12,VWS V14.01,2013-01-26 03:18:00,
2013-01-25 22:23:00,21.8,17.7,30.18,West,278,0.0,3.0,84,0.00,,OVC035,0.12,VWS V14.01,2013-01-26 03:23:00,
2013-01-25 22:29:00,21.9,17.8,30.18,West,272,0.0,2.0,84,0.00,,OVC035,0.12,VWS V14.01,2013-01-26 03:29:00,
2013-01-25 22:30:00,22.5,19.5,30.17,SSW,208,3.0,6.0,88,0.00,,OVC100,0.12,VWS V14.01,2013-01-26 03:30:00,
2013-01-25 22:34:00,21.9,18.1,30.18,WSW,248,0.0,5.0,85,0.00,,OVC035,0.12,VWS V14.01,2013-01-26 03:34:00,
2013-01-25 22:39:00,21.9,18.1,30.18,SW,234,3.0,5.0,85,0.00,,OVC035,0.12,VWS V14.01,2013-01-26 03:39:00,
2013-01-25 22:44:00,21.9,18.1,30.18,SSW,203,3.0,3.0,85,0.00,,OVC035,0.12,VWS V14.01,2013-01-26 03:44:00,
2013-01-25 22:45:00,22.7,19.7,30.17,SSW,213,0.0,7.0,88,0.00,,OVC100,0.12,VWS V14.01,2013-01-26 03:45:00,
2013-01-25 22:49:00,21.9,18.1,30.18,SSW,208,5.0,5.0,85,0.00,,OVC035,0.12,VWS V14.01,2013-01-26 03:49:00,
2013-01-25 22:54:00,22.1,18.6,30.18,SW,222,0.0,5.0,86,0.00,,OVC035,0.12,VWS V14.01,2013-01-26 03:54:00,
2013-01-25 22:59:00,22.1,18.6,30.18,SW,234,0.0,4.0,86,0.00,,OVC035,0.12,VWS V14.01,2013-01-26 03:59:00,
2013-01-25 23:00:00,23.0,20.0,30.17,SW,232,3.0,7.0,88,0.00,,OVC100,0.12,VWS V14.01,2013-01-26 04:00:00,
2013-01-25 23:04:00,22.2,18.7,30.18,WSW,251,0.0,6.0,86,0.00,,,0.12,VWS V14.01,2013-01-26 04:04:00,
2013-01-25 23:09:00,22.2,18.9,30.18,SW,215,0.0,6.0,87,0.00,,,0.12,VWS V14.01,2013-01-26 04:09:00,
2013-01-25 23:14:00,22.2,18.9,30.18,SW,220,0.0,6.0,87,0.00,,,0.12,VWS V14.01,2013-01-26 04:14:00,
2013-01-25 23:15:00,23.2,20.2,30.17,SW,217,2.0,8.0,88,0.00,,OVC100,0.00,VWS V14.01,2013-01-26 04:15:00,
2013-01-25 23:19:00,22.4,19.1,30.18,SW,216,0.0,4.0,87,0.00,,,0.12,VWS V14.01,2013-01-26 04:19:00,
2013-01-25 23:24:00,22.5,19.2,30.17,SSW,208,0.0,4.0,87,0.00,,,0.12,VWS V14.01,2013-01-26 04:24:00,
2013-01-25 23:29:00,22.5,19.2,30.17,SW,215,3.0,6.0,87,0.00,,,0.12,VWS V14.01,2013-01-26 04:29:00,
2013-01-25 23:30:00,23.3,20.0,30.17,WSW,247,0.0,8.0,87,0.00,,OVC100,0.00,VWS V14.01,2013-01-26 04:30:00,
2013-01-25 23:34:00,22.5,19.5,30.17,SSW,209,0.0,7.0,88,0.00,,,0.12,VWS V14.01,2013-01-26 04:34:00,
2013-01-25 23:39:00,22.7,19.7,30.17,SW,216,1.0,7.0,88,0.00,,,0.12,VWS V14.01,2013-01-26 04:39:00,
2013-01-25 23:44:00,22.7,19.7,30.17,SSW,208,0.0,7.0,88,0.00,,,0.12,VWS V14.01,2013-01-26 04:44:00,
2013-01-25 23:45:00,23.5,20.2,30.17,South,184,6.0,8.0,87,0.00,,OVC100,0.00,VWS V14.01,2013-01-26 04:45:00,
2013-01-25 23:49:00,22.9,19.9,30.17,SW,219,3.0,7.0,88,0.00,,,0.12,VWS V14.01,2013-01-26 04:49:00,
2013-01-25 23:54:00,22.9,19.9,30.17,WSW,251,1.0,7.0,88,0.00,,,0.12,VWS V14.01,2013-01-26 04:54:00,
2013-01-25 23:59:00,23.0,20.0,30.17,WSW,247,0.0,7.0,88,0.00,,,0.12,VWS V14.01,2013-01-26 04:59:00,